This demonstration page uses our WeatherBlox Daily Observations layout. Learn more.

Left ArrowRight Arrow

41.55636, -103.73856

Hourly Observations for April 9, 2020

Temp ( °F °C ) Dew Point ( °F °C ) Humidity (%) Winds ( mph kmh ) Pressure ( in mb ) Visibility ( mi km ) Precip ( " mm )
6:58 pm 18:58 Clear 53 11.7 25 -3.8 34 34 NNE 7 11 30.06 1018 10 16 0.00 0.00
7:58 pm 19:58 Clear 45 7.1 25 -3.9 46 46 NNE 9 15 30.08 1019 10 16 0.00 0.00
8:58 pm 20:58 Clear 40 4.7 24 -4.5 52 52 ENE 12 19 30.12 1020 10 16 0.00 0.00
9:58 pm 21:58 Clear 39 3.8 23 -5.1 53 53 ENE 9 15 30.14 1021 10 16 0.00 0.00
10:58 pm 22:58 Clear 37 2.7 21 -6 53 53 ENE 7 11 30.14 1021 10 16 0.00 0.00
11:58 pm 23:58 Clear 35 1.5 21 -6 58 58 WSW 3 6 30.16 1021 10 16 0.00 0.00
12:58 am 00:58 Clear 36 2 21 -6.3 55 55 Calm 30.18 1022 10 16 0.00 0.00
1:58 am 01:58 Clear 29 -1.5 21 -6 72 72 WSW 5 7 30.19 1022 10 16 0.00 0.00
2:58 am 02:58 Clear 31 -0.6 22 -5.6 69 69 NW 5 7 30.18 1022 10 16 0.00 0.00
3:58 am 03:58 Clear 29 -1.6 21 -6.1 72 72 SW 5 7 30.18 1022 10 16 0.00 0.00
4:58 am 04:58 Clear 27 -2.9 20 -6.6 76 76 W 3 6 30.18 1022 10 16 0.00 0.00
5:58 am 05:58 Clear 26 -3.6 20 -6.7 79 79 Calm 30.21 1023 10 16 0.00 0.00
6:58 am 06:58 Sunny 27 -2.7 21 -6 78 78 W 6 9 30.24 1024 10 16 0.00 0.00
7:58 am 07:58 Sunny 31 -0.3 25 -3.7 78 78 WSW 6 9 30.25 1025 10 16 0.00 0.00
8:58 am 08:58 Sunny 39 3.7 25 -3.8 58 58 NW 10 17 30.26 1025 10 16 0.00 0.00
9:58 am 09:58 Mostly Sunny 44 6.6 14 -10.1 29 29 N 12 19 30.26 1025 10 16 0.00 0.00
10:58 am 10:58 Sunny 47 8.4 13 -10.3 26 26 N 14 22 30.25 1024 10 16 0.00 0.00
11:58 am 11:58 Sunny 49 9.4 16 -8.7 27 27 N 12 19 30.23 1024 10 16 0.00 0.00
12:58 pm 12:58 Sunny 52 10.9 13 -10.5 21 21 NE 6 9 30.19 1022 10 16 0.00 0.00
1:58 pm 13:58 Sunny 52 11.1 14 -9.9 22 22 N 6 9 30.18 1022 10 16 0.00 0.00
2:58 pm 14:58 Sunny 55 12.5 14 -10.1 20 20 NNE 9 15 30.15 1021 10 16 0.00 0.00
3:58 pm 15:58 Sunny 55 12.5 14 -9.8 20 20 N 12 19 30.13 1020 10 16 0.00 0.00
4:58 pm 16:58 Sunny 54 12.4 14 -9.8 20 20 NNE 3 6 30.13 1020 10 16 0.00 0.00
5:58 pm 17:58 Sunny 53 11.6 13 -10.3 21 21 ENE 3 6 30.13 1020 10 16 0.00 0.00

Powered by AerisWeather